<?xml version="1.0" encoding="UTF-8" standalone="no" ?>
<gpx xmlns="http://www.topografix.com/GPX/1/1" creator="MapSource 6.11.6" version="1.1" xmlns:xsi="http://www.w3.org/2001/XMLSchema-instance" xsi:schemaLocation="http://www.topografix.com/GPX/1/1 http://www.topografix.com/GPX/1/1/gpx.xsd">

  <metadata>
    <link href="http://www.garmin.com">
      <text>Garmin International</text>
    </link>
    <time>2008-10-13T15:35:42Z</time>
    <bounds maxlat="50.092736" maxlon="6.831042" minlat="50.028140" minlon="6.755697"/>
  </metadata>

  <trk>
    <name>Etappe 12 Eifelsteig</name>
    <extensions>
      <gpxx:TrackExtension xmlns:gpxx="http://www.garmin.com/xmlschemas/GpxExtensions/v3" xmlns:xsi="http://www.w3.org/2001/XMLSchema-instance" xsi:schemaLocation="http://www.garmin.com/xmlschemas/GpxExtensions/v3 http://www.garmin.com/xmlschemas/GpxExtensions/v3/GpxExtensionsv3.xsd">
        <gpxx:DisplayColor>White</gpxx:DisplayColor>
      </gpxx:TrackExtension>
    </extensions>
    <trkseg>
      <trkpt lat="50.092736" lon="6.812684">
        <time>2008-07-14T12:00:08Z</time>
      </trkpt>
      <trkpt lat="50.092736" lon="6.812684">
        <time>2008-07-14T12:00:08Z</time>
      </trkpt>
      <trkpt lat="50.092673" lon="6.811411">
        <time>2008-07-14T12:00:08Z</time>
      </trkpt>
      <trkpt lat="50.092580" lon="6.810599">
        <ele>374.000000</ele>
        <time>2008-07-14T12:00:08Z</time>
      </trkpt>
      <trkpt lat="50.092580" lon="6.810599">
        <time>2008-07-14T12:00:08Z</time>
      </trkpt>
      <trkpt lat="50.092256" lon="6.810551">
        <time>2008-07-14T12:00:08Z</time>
      </trkpt>
      <trkpt lat="50.092022" lon="6.810575">
        <time>2008-07-14T12:00:08Z</time>
      </trkpt>
      <trkpt lat="50.092022" lon="6.810575">
        <time>2008-07-14T12:00:08Z</time>
      </trkpt>
      <trkpt lat="50.091972" lon="6.811385">
        <time>2008-07-14T12:00:08Z</time>
      </trkpt>
      <trkpt lat="50.091715" lon="6.812051">
        <time>2008-07-14T12:00:08Z</time>
      </trkpt>
      <trkpt lat="50.091715" lon="6.812051">
        <time>2008-07-14T12:00:08Z</time>
      </trkpt>
      <trkpt lat="50.091623" lon="6.812399">
        <time>2008-07-14T12:00:08Z</time>
      </trkpt>
      <trkpt lat="50.091511" lon="6.813054">
        <time>2008-07-14T12:00:08Z</time>
      </trkpt>
      <trkpt lat="50.091511" lon="6.813054">
        <time>2008-07-14T12:00:08Z</time>
      </trkpt>
      <trkpt lat="50.091439" lon="6.813067">
        <time>2008-07-14T12:00:08Z</time>
      </trkpt>
      <trkpt lat="50.091281" lon="6.813707">
        <time>2008-07-14T12:00:08Z</time>
      </trkpt>
      <trkpt lat="50.091422" lon="6.814199">
        <time>2008-07-14T12:00:08Z</time>
      </trkpt>
      <trkpt lat="50.091419" lon="6.814548">
        <ele>361.000000</ele>
        <time>2008-07-14T12:00:08Z</time>
      </trkpt>
      <trkpt lat="50.091419" lon="6.814548">
        <time>2008-07-14T12:00:08Z</time>
      </trkpt>
      <trkpt lat="50.090755" lon="6.814467">
        <time>2008-07-14T12:00:08Z</time>
      </trkpt>
      <trkpt lat="50.090755" lon="6.814467">
        <time>2008-07-14T12:00:08Z</time>
      </trkpt>
      <trkpt lat="50.090359" lon="6.814516">
        <time>2008-07-14T12:00:08Z</time>
      </trkpt>
      <trkpt lat="50.089427" lon="6.815255">
        <time>2008-07-14T12:00:08Z</time>
      </trkpt>
      <trkpt lat="50.088679" lon="6.815550">
        <time>2008-07-14T12:00:08Z</time>
      </trkpt>
      <trkpt lat="50.088447" lon="6.815350">
        <time>2008-07-14T12:00:08Z</time>
      </trkpt>
      <trkpt lat="50.088447" lon="6.815350">
        <time>2008-07-14T12:00:08Z</time>
      </trkpt>
      <trkpt lat="50.088331" lon="6.815208">
        <time>2008-07-14T12:00:08Z</time>
      </trkpt>
      <trkpt lat="50.088279" lon="6.814872">
        <time>2008-07-14T12:00:08Z</time>
      </trkpt>
      <trkpt lat="50.088166" lon="6.815667">
        <time>2008-07-14T12:00:08Z</time>
      </trkpt>
      <trkpt lat="50.088166" lon="6.815667">
        <time>2008-07-14T12:00:08Z</time>
      </trkpt>
      <trkpt lat="50.087852" lon="6.816779">
        <time>2008-07-14T12:00:08Z</time>
      </trkpt>
      <trkpt lat="50.087852" lon="6.816779">
        <time>2008-07-14T12:00:08Z</time>
      </trkpt>
      <trkpt lat="50.087207" lon="6.816447">
        <time>2008-07-14T12:00:08Z</time>
      </trkpt>
      <trkpt lat="50.086385" lon="6.815804">
        <ele>355.000000</ele>
        <time>2008-07-14T12:00:08Z</time>
      </trkpt>
      <trkpt lat="50.086385" lon="6.815804">
        <time>2008-07-14T12:00:08Z</time>
      </trkpt>
      <trkpt lat="50.086463" lon="6.814841">
        <time>2008-07-14T12:00:08Z</time>
      </trkpt>
      <trkpt lat="50.086497" lon="6.813905">
        <time>2008-07-14T12:00:08Z</time>
      </trkpt>
      <trkpt lat="50.086332" lon="6.813008">
        <time>2008-07-14T12:00:08Z</time>
      </trkpt>
      <trkpt lat="50.086085" lon="6.812376">
        <time>2008-07-14T12:00:08Z</time>
      </trkpt>
      <trkpt lat="50.086085" lon="6.812376">
        <time>2008-07-14T12:00:08Z</time>
      </trkpt>
      <trkpt lat="50.085611" lon="6.811976">
        <time>2008-07-14T12:00:08Z</time>
      </trkpt>
      <trkpt lat="50.085611" lon="6.811976">
        <time>2008-07-14T12:00:08Z</time>
      </trkpt>
      <trkpt lat="50.084468" lon="6.812222">
        <time>2008-07-14T12:00:08Z</time>
      </trkpt>
      <trkpt lat="50.084015" lon="6.812718">
        <time>2008-07-14T12:00:08Z</time>
      </trkpt>
      <trkpt lat="50.084015" lon="6.812718">
        <time>2008-07-14T12:00:08Z</time>
      </trkpt>
      <trkpt lat="50.083717" lon="6.812922">
        <time>2008-07-14T12:00:08Z</time>
      </trkpt>
      <trkpt lat="50.082566" lon="6.812917">
        <time>2008-07-14T12:00:08Z</time>
      </trkpt>
      <trkpt lat="50.082566" lon="6.812917">
        <time>2008-07-14T12:00:08Z</time>
      </trkpt>
      <trkpt lat="50.082512" lon="6.812916">
        <time>2008-07-14T12:00:08Z</time>
      </trkpt>
      <trkpt lat="50.081880" lon="6.813310">
        <time>2008-07-14T12:00:08Z</time>
      </trkpt>
      <trkpt lat="50.081637" lon="6.813390">
        <time>2008-07-14T12:00:08Z</time>
      </trkpt>
      <trkpt lat="50.081637" lon="6.813390">
        <time>2008-07-14T12:00:08Z</time>
      </trkpt>
      <trkpt lat="50.081217" lon="6.813034">
        <time>2008-07-14T12:00:08Z</time>
      </trkpt>
      <trkpt lat="50.081106" lon="6.813423">
        <time>2008-07-14T12:00:08Z</time>
      </trkpt>
      <trkpt lat="50.081106" lon="6.813423">
        <time>2008-07-14T12:00:08Z</time>
      </trkpt>
      <trkpt lat="50.080968" lon="6.813910">
        <time>2008-07-14T12:00:08Z</time>
      </trkpt>
      <trkpt lat="50.080352" lon="6.814500">
        <time>2008-07-14T12:00:08Z</time>
      </trkpt>
      <trkpt lat="50.080352" lon="6.814500">
        <time>2008-07-14T12:00:08Z</time>
      </trkpt>
      <trkpt lat="50.080181" lon="6.814637">
        <time>2008-07-14T12:00:08Z</time>
      </trkpt>
      <trkpt lat="50.080181" lon="6.814637">
        <time>2008-07-14T12:00:08Z</time>
      </trkpt>
      <trkpt lat="50.079927" lon="6.814842">
        <time>2008-07-14T12:00:08Z</time>
      </trkpt>
      <trkpt lat="50.079927" lon="6.814842">
        <time>2008-07-14T12:00:08Z</time>
      </trkpt>
      <trkpt lat="50.079864" lon="6.814869">
        <time>2008-07-14T12:00:08Z</time>
      </trkpt>
      <trkpt lat="50.079864" lon="6.814869">
        <time>2008-07-14T12:00:08Z</time>
      </trkpt>
      <trkpt lat="50.079692" lon="6.815006">
        <time>2008-07-14T12:00:08Z</time>
      </trkpt>
      <trkpt lat="50.079522" lon="6.816190">
        <time>2008-07-14T12:00:08Z</time>
      </trkpt>
      <trkpt lat="50.079738" lon="6.817549">
        <time>2008-07-14T12:00:08Z</time>
      </trkpt>
      <trkpt lat="50.079955" lon="6.818559">
        <time>2008-07-14T12:00:08Z</time>
      </trkpt>
      <trkpt lat="50.079955" lon="6.818559">
        <time>2008-07-14T12:00:08Z</time>
      </trkpt>
      <trkpt lat="50.078681" lon="6.819459">
        <time>2008-07-14T12:00:08Z</time>
      </trkpt>
      <trkpt lat="50.078681" lon="6.819459">
        <time>2008-07-14T12:00:08Z</time>
      </trkpt>
      <trkpt lat="50.078241" lon="6.820709">
        <time>2008-07-14T12:00:08Z</time>
      </trkpt>
      <trkpt lat="50.077879" lon="6.822296">
        <time>2008-07-14T12:00:08Z</time>
      </trkpt>
      <trkpt lat="50.077879" lon="6.822296">
        <time>2008-07-14T12:00:08Z</time>
      </trkpt>
      <trkpt lat="50.076839" lon="6.821942">
        <time>2008-07-14T12:00:08Z</time>
      </trkpt>
      <trkpt lat="50.076471" lon="6.821783">
        <time>2008-07-14T12:00:08Z</time>
      </trkpt>
      <trkpt lat="50.076471" lon="6.821783">
        <time>2008-07-14T12:00:08Z</time>
      </trkpt>
      <trkpt lat="50.075753" lon="6.821561">
        <time>2008-07-14T12:00:08Z</time>
      </trkpt>
      <trkpt lat="50.075753" lon="6.821561">
        <time>2008-07-14T12:00:08Z</time>
      </trkpt>
      <trkpt lat="50.075341" lon="6.821428">
        <time>2008-07-14T12:00:08Z</time>
      </trkpt>
      <trkpt lat="50.075341" lon="6.821428">
        <time>2008-07-14T12:00:08Z</time>
      </trkpt>
      <trkpt lat="50.075053" lon="6.822694">
        <time>2008-07-14T12:00:08Z</time>
      </trkpt>
      <trkpt lat="50.074685" lon="6.822688">
        <time>2008-07-14T12:00:08Z</time>
      </trkpt>
      <trkpt lat="50.074685" lon="6.822688">
        <time>2008-07-14T12:00:08Z</time>
      </trkpt>
      <trkpt lat="50.074467" lon="6.821637">
        <time>2008-07-14T12:00:08Z</time>
      </trkpt>
      <trkpt lat="50.073956" lon="6.821502">
        <time>2008-07-14T12:00:08Z</time>
      </trkpt>
      <trkpt lat="50.073956" lon="6.821502">
        <time>2008-07-14T12:00:08Z</time>
      </trkpt>
      <trkpt lat="50.073810" lon="6.821835">
        <ele>303.000000</ele>
        <time>2008-07-14T12:00:08Z</time>
      </trkpt>
      <trkpt lat="50.073810" lon="6.821835">
        <time>2008-07-14T12:00:08Z</time>
      </trkpt>
      <trkpt lat="50.073209" lon="6.821629">
        <time>2008-07-14T12:00:08Z</time>
      </trkpt>
      <trkpt lat="50.072434" lon="6.821825">
        <time>2008-07-14T12:00:08Z</time>
      </trkpt>
      <trkpt lat="50.071946" lon="6.820937">
        <time>2008-07-14T12:00:08Z</time>
      </trkpt>
      <trkpt lat="50.071035" lon="6.820083">
        <time>2008-07-14T12:00:08Z</time>
      </trkpt>
      <trkpt lat="50.070660" lon="6.819686">
        <time>2008-07-14T12:00:08Z</time>
      </trkpt>
      <trkpt lat="50.070660" lon="6.819686">
        <time>2008-07-14T12:00:08Z</time>
      </trkpt>
      <trkpt lat="50.070266" lon="6.819469">
        <time>2008-07-14T12:00:08Z</time>
      </trkpt>
      <trkpt lat="50.069736" lon="6.819475">
        <time>2008-07-14T12:00:08Z</time>
      </trkpt>
      <trkpt lat="50.069519" lon="6.819624">
        <time>2008-07-14T12:00:08Z</time>
      </trkpt>
      <trkpt lat="50.069519" lon="6.819624">
        <time>2008-07-14T12:00:08Z</time>
      </trkpt>
      <trkpt lat="50.068876" lon="6.820186">
        <time>2008-07-14T12:00:08Z</time>
      </trkpt>
      <trkpt lat="50.067663" lon="6.821436">
        <time>2008-07-14T12:00:08Z</time>
      </trkpt>
      <trkpt lat="50.067249" lon="6.821430">
        <ele>262.000000</ele>
        <time>2008-07-14T12:00:08Z</time>
      </trkpt>
      <trkpt lat="50.067249" lon="6.821430">
        <time>2008-07-14T12:00:08Z</time>
      </trkpt>
      <trkpt lat="50.066717" lon="6.821769">
        <time>2008-07-14T12:00:08Z</time>
      </trkpt>
      <trkpt lat="50.066299" lon="6.822391">
        <time>2008-07-14T12:00:08Z</time>
      </trkpt>
      <trkpt lat="50.066115" lon="6.822974">
        <time>2008-07-14T12:00:08Z</time>
      </trkpt>
      <trkpt lat="50.066115" lon="6.822974">
        <time>2008-07-14T12:00:08Z</time>
      </trkpt>
      <trkpt lat="50.066661" lon="6.823207">
        <time>2008-07-14T12:00:08Z</time>
      </trkpt>
      <trkpt lat="50.066836" lon="6.823881">
        <time>2008-07-14T12:00:08Z</time>
      </trkpt>
      <trkpt lat="50.066829" lon="6.824998">
        <time>2008-07-14T12:00:08Z</time>
      </trkpt>
      <trkpt lat="50.066528" lon="6.825551">
        <ele>302.000000</ele>
        <time>2008-07-14T12:00:08Z</time>
      </trkpt>
      <trkpt lat="50.066528" lon="6.825551">
        <time>2008-07-14T12:00:08Z</time>
      </trkpt>
      <trkpt lat="50.066444" lon="6.824754">
        <time>2008-07-14T12:00:08Z</time>
      </trkpt>
      <trkpt lat="50.066444" lon="6.824754">
        <time>2008-07-14T12:00:08Z</time>
      </trkpt>
      <trkpt lat="50.066085" lon="6.825837">
        <time>2008-07-14T12:00:08Z</time>
      </trkpt>
      <trkpt lat="50.065738" lon="6.826585">
        <time>2008-07-14T12:00:08Z</time>
      </trkpt>
      <trkpt lat="50.065738" lon="6.826585">
        <time>2008-07-14T12:00:08Z</time>
      </trkpt>
      <trkpt lat="50.065608" lon="6.825927">
        <time>2008-07-14T12:00:08Z</time>
      </trkpt>
      <trkpt lat="50.065596" lon="6.825061">
        <time>2008-07-14T12:00:08Z</time>
      </trkpt>
      <trkpt lat="50.065647" lon="6.824210">
        <time>2008-07-14T12:00:08Z</time>
      </trkpt>
      <trkpt lat="50.065647" lon="6.824210">
        <time>2008-07-14T12:00:08Z</time>
      </trkpt>
      <trkpt lat="50.065450" lon="6.824206">
        <time>2008-07-14T12:00:08Z</time>
      </trkpt>
      <trkpt lat="50.065450" lon="6.824206">
        <time>2008-07-14T12:00:08Z</time>
      </trkpt>
      <trkpt lat="50.065109" lon="6.825276">
        <time>2008-07-14T12:00:08Z</time>
      </trkpt>
      <trkpt lat="50.064983" lon="6.826642">
        <time>2008-07-14T12:00:08Z</time>
      </trkpt>
      <trkpt lat="50.064983" lon="6.826642">
        <time>2008-07-14T12:00:08Z</time>
      </trkpt>
      <trkpt lat="50.064975" lon="6.827676">
        <time>2008-07-14T12:00:08Z</time>
      </trkpt>
      <trkpt lat="50.065015" lon="6.828389">
        <time>2008-07-14T12:00:08Z</time>
      </trkpt>
      <trkpt lat="50.065127" lon="6.829089">
        <time>2008-07-14T12:00:08Z</time>
      </trkpt>
      <trkpt lat="50.065164" lon="6.830165">
        <time>2008-07-14T12:00:08Z</time>
      </trkpt>
      <trkpt lat="50.065222" lon="6.830962">
        <time>2008-07-14T12:00:08Z</time>
      </trkpt>
      <trkpt lat="50.065222" lon="6.830962">
        <time>2008-07-14T12:00:08Z</time>
      </trkpt>
      <trkpt lat="50.064978" lon="6.831042">
        <time>2008-07-14T12:00:08Z</time>
      </trkpt>
      <trkpt lat="50.064601" lon="6.831007">
        <time>2008-07-14T12:00:08Z</time>
      </trkpt>
      <trkpt lat="50.064358" lon="6.830989">
        <time>2008-07-14T12:00:08Z</time>
      </trkpt>
      <trkpt lat="50.064053" lon="6.830998">
        <time>2008-07-14T12:00:08Z</time>
      </trkpt>
      <trkpt lat="50.064053" lon="6.830998">
        <time>2008-07-14T12:00:08Z</time>
      </trkpt>
      <trkpt lat="50.064091" lon="6.830677">
        <time>2008-07-14T12:00:08Z</time>
      </trkpt>
      <trkpt lat="50.064078" lon="6.829993">
        <time>2008-07-14T12:00:08Z</time>
      </trkpt>
      <trkpt lat="50.064078" lon="6.829993">
        <time>2008-07-14T12:00:08Z</time>
      </trkpt>
      <trkpt lat="50.063823" lon="6.829164">
        <time>2008-07-14T12:00:08Z</time>
      </trkpt>
      <trkpt lat="50.063545" lon="6.827819">
        <time>2008-07-14T12:00:08Z</time>
      </trkpt>
      <trkpt lat="50.063386" lon="6.827397">
        <time>2008-07-14T12:00:08Z</time>
      </trkpt>
      <trkpt lat="50.063386" lon="6.827397">
        <time>2008-07-14T12:00:08Z</time>
      </trkpt>
      <trkpt lat="50.063180" lon="6.825997">
        <time>2008-07-14T12:00:08Z</time>
      </trkpt>
      <trkpt lat="50.062892" lon="6.824833">
        <time>2008-07-14T12:00:08Z</time>
      </trkpt>
      <trkpt lat="50.062636" lon="6.824200">
        <time>2008-07-14T12:00:08Z</time>
      </trkpt>
      <trkpt lat="50.062423" lon="6.823707">
        <time>2008-07-14T12:00:08Z</time>
      </trkpt>
      <trkpt lat="50.062423" lon="6.823707">
        <time>2008-07-14T12:00:08Z</time>
      </trkpt>
      <trkpt lat="50.062309" lon="6.824585">
        <time>2008-07-14T12:00:08Z</time>
      </trkpt>
      <trkpt lat="50.061849" lon="6.823586">
        <time>2008-07-14T12:00:08Z</time>
      </trkpt>
      <trkpt lat="50.061645" lon="6.821948">
        <time>2008-07-14T12:00:08Z</time>
      </trkpt>
      <trkpt lat="50.061645" lon="6.821948">
        <time>2008-07-14T12:00:08Z</time>
      </trkpt>
      <trkpt lat="50.061505" lon="6.822700">
        <time>2008-07-14T12:00:08Z</time>
      </trkpt>
      <trkpt lat="50.061286" lon="6.823087">
        <time>2008-07-14T12:00:08Z</time>
      </trkpt>
      <trkpt lat="50.060811" lon="6.822898">
        <time>2008-07-14T12:00:08Z</time>
      </trkpt>
      <trkpt lat="50.060333" lon="6.823141">
        <time>2008-07-14T12:00:08Z</time>
      </trkpt>
      <trkpt lat="50.059967" lon="6.824028">
        <time>2008-07-14T12:00:08Z</time>
      </trkpt>
      <trkpt lat="50.059967" lon="6.824028">
        <time>2008-07-14T12:00:08Z</time>
      </trkpt>
      <trkpt lat="50.059698" lon="6.823926">
        <time>2008-07-14T12:00:08Z</time>
      </trkpt>
      <trkpt lat="50.059698" lon="6.823926">
        <time>2008-07-14T12:00:08Z</time>
      </trkpt>
      <trkpt lat="50.059930" lon="6.822869">
        <time>2008-07-14T12:00:08Z</time>
      </trkpt>
      <trkpt lat="50.059663" lon="6.822487">
        <time>2008-07-14T12:00:08Z</time>
      </trkpt>
      <trkpt lat="50.059673" lon="6.822403">
        <time>2008-07-14T12:00:08Z</time>
      </trkpt>
      <trkpt lat="50.059673" lon="6.822403">
        <time>2008-07-14T12:00:08Z</time>
      </trkpt>
      <trkpt lat="50.059719" lon="6.822181">
        <time>2008-07-14T12:00:08Z</time>
      </trkpt>
      <trkpt lat="50.059381" lon="6.821672">
        <time>2008-07-14T12:00:08Z</time>
      </trkpt>
      <trkpt lat="50.058492" lon="6.820219">
        <time>2008-07-14T12:00:08Z</time>
      </trkpt>
      <trkpt lat="50.057872" lon="6.818881">
        <time>2008-07-14T12:00:08Z</time>
      </trkpt>
      <trkpt lat="50.057566" lon="6.817661">
        <time>2008-07-14T12:00:08Z</time>
      </trkpt>
      <trkpt lat="50.057200" lon="6.816063">
        <time>2008-07-14T12:00:08Z</time>
      </trkpt>
      <trkpt lat="50.057200" lon="6.816063">
        <time>2008-07-14T12:00:08Z</time>
      </trkpt>
      <trkpt lat="50.056984" lon="6.816059">
        <time>2008-07-14T12:00:08Z</time>
      </trkpt>
      <trkpt lat="50.056858" lon="6.816113">
        <time>2008-07-14T12:00:08Z</time>
      </trkpt>
      <trkpt lat="50.056722" lon="6.816306">
        <time>2008-07-14T12:00:08Z</time>
      </trkpt>
      <trkpt lat="50.056722" lon="6.816306">
        <time>2008-07-14T12:00:08Z</time>
      </trkpt>
      <trkpt lat="50.056356" lon="6.817166">
        <time>2008-07-14T12:00:08Z</time>
      </trkpt>
      <trkpt lat="50.056356" lon="6.817166">
        <time>2008-07-14T12:00:08Z</time>
      </trkpt>
      <trkpt lat="50.055821" lon="6.817883">
        <time>2008-07-14T12:00:08Z</time>
      </trkpt>
      <trkpt lat="50.055220" lon="6.818948">
        <time>2008-07-14T12:00:08Z</time>
      </trkpt>
      <trkpt lat="50.055138" lon="6.819086">
        <time>2008-07-14T12:00:08Z</time>
      </trkpt>
      <trkpt lat="50.055138" lon="6.819086">
        <time>2008-07-14T12:00:08Z</time>
      </trkpt>
      <trkpt lat="50.054422" lon="6.819856">
        <time>2008-07-14T12:00:08Z</time>
      </trkpt>
      <trkpt lat="50.054265" lon="6.820496">
        <time>2008-07-14T12:00:08Z</time>
      </trkpt>
      <trkpt lat="50.054265" lon="6.820496">
        <time>2008-07-14T12:00:08Z</time>
      </trkpt>
      <trkpt lat="50.054017" lon="6.820003">
        <time>2008-07-14T12:00:08Z</time>
      </trkpt>
      <trkpt lat="50.053550" lon="6.819813">
        <time>2008-07-14T12:00:08Z</time>
      </trkpt>
      <trkpt lat="50.053550" lon="6.819813">
        <time>2008-07-14T12:00:08Z</time>
      </trkpt>
      <trkpt lat="50.053483" lon="6.819156">
        <time>2008-07-14T12:00:08Z</time>
      </trkpt>
      <trkpt lat="50.053485" lon="6.818918">
        <time>2008-07-14T12:00:08Z</time>
      </trkpt>
      <trkpt lat="50.053485" lon="6.818918">
        <time>2008-07-14T12:00:08Z</time>
      </trkpt>
      <trkpt lat="50.053433" lon="6.818541">
        <time>2008-07-14T12:00:08Z</time>
      </trkpt>
      <trkpt lat="50.053294" lon="6.817980">
        <time>2008-07-14T12:00:08Z</time>
      </trkpt>
      <trkpt lat="50.053144" lon="6.817516">
        <time>2008-07-14T12:00:08Z</time>
      </trkpt>
      <trkpt lat="50.052753" lon="6.816867">
        <time>2008-07-14T12:00:08Z</time>
      </trkpt>
      <trkpt lat="50.052567" lon="6.816515">
        <time>2008-07-14T12:00:08Z</time>
      </trkpt>
      <trkpt lat="50.052309" lon="6.816036">
        <time>2008-07-14T12:00:08Z</time>
      </trkpt>
      <trkpt lat="50.052121" lon="6.815949">
        <time>2008-07-14T12:00:08Z</time>
      </trkpt>
      <trkpt lat="50.051850" lon="6.816126">
        <time>2008-07-14T12:00:08Z</time>
      </trkpt>
      <trkpt lat="50.051850" lon="6.816126">
        <time>2008-07-14T12:00:08Z</time>
      </trkpt>
      <trkpt lat="50.051823" lon="6.816223">
        <time>2008-07-14T12:00:08Z</time>
      </trkpt>
      <trkpt lat="50.051540" lon="6.816819">
        <time>2008-07-14T12:00:08Z</time>
      </trkpt>
      <trkpt lat="50.051540" lon="6.816819">
        <time>2008-07-14T12:00:08Z</time>
      </trkpt>
      <trkpt lat="50.050746" lon="6.817126">
        <time>2008-07-14T12:00:08Z</time>
      </trkpt>
      <trkpt lat="50.050721" lon="6.816861">
        <time>2008-07-14T12:00:08Z</time>
      </trkpt>
      <trkpt lat="50.050721" lon="6.816861">
        <time>2008-07-14T12:00:08Z</time>
      </trkpt>
      <trkpt lat="50.050470" lon="6.816759">
        <time>2008-07-14T12:00:08Z</time>
      </trkpt>
      <trkpt lat="50.050470" lon="6.816759">
        <time>2008-07-14T12:00:08Z</time>
      </trkpt>
      <trkpt lat="50.050306" lon="6.817147">
        <time>2008-07-14T12:00:08Z</time>
      </trkpt>
      <trkpt lat="50.050018" lon="6.817156">
        <time>2008-07-14T12:00:08Z</time>
      </trkpt>
      <trkpt lat="50.049893" lon="6.816958">
        <ele>230.000000</ele>
        <time>2008-07-14T12:00:08Z</time>
      </trkpt>
      <trkpt lat="50.049893" lon="6.816958">
        <time>2008-07-14T12:00:08Z</time>
      </trkpt>
      <trkpt lat="50.049536" lon="6.816645">
        <time>2008-07-14T12:00:08Z</time>
      </trkpt>
      <trkpt lat="50.049442" lon="6.815959">
        <time>2008-07-14T12:00:08Z</time>
      </trkpt>
      <trkpt lat="50.049186" lon="6.815285">
        <time>2008-07-14T12:00:08Z</time>
      </trkpt>
      <trkpt lat="50.048821" lon="6.813422">
        <time>2008-07-14T12:00:08Z</time>
      </trkpt>
      <trkpt lat="50.049024" lon="6.812755">
        <time>2008-07-14T12:00:08Z</time>
      </trkpt>
      <trkpt lat="50.049024" lon="6.812755">
        <time>2008-07-14T12:00:08Z</time>
      </trkpt>
      <trkpt lat="50.049477" lon="6.810975">
        <time>2008-07-14T12:00:08Z</time>
      </trkpt>
      <trkpt lat="50.049389" lon="6.810709">
        <time>2008-07-14T12:00:08Z</time>
      </trkpt>
      <trkpt lat="50.049389" lon="6.810709">
        <time>2008-07-14T12:00:08Z</time>
      </trkpt>
      <trkpt lat="50.048854" lon="6.810113">
        <time>2008-07-14T12:00:08Z</time>
      </trkpt>
      <trkpt lat="50.048707" lon="6.809259">
        <time>2008-07-14T12:00:08Z</time>
      </trkpt>
      <trkpt lat="50.048707" lon="6.809259">
        <time>2008-07-14T12:00:08Z</time>
      </trkpt>
      <trkpt lat="50.048664" lon="6.808909">
        <time>2008-07-14T12:00:08Z</time>
      </trkpt>
      <trkpt lat="50.048594" lon="6.808629">
        <time>2008-07-14T12:00:08Z</time>
      </trkpt>
      <trkpt lat="50.048594" lon="6.808629">
        <time>2008-07-14T12:00:08Z</time>
      </trkpt>
      <trkpt lat="50.048391" lon="6.809366">
        <time>2008-07-14T12:00:08Z</time>
      </trkpt>
      <trkpt lat="50.048307" lon="6.809769">
        <time>2008-07-14T12:00:08Z</time>
      </trkpt>
      <trkpt lat="50.048009" lon="6.810057">
        <time>2008-07-14T12:00:08Z</time>
      </trkpt>
      <trkpt lat="50.047658" lon="6.810107">
        <time>2008-07-14T12:00:08Z</time>
      </trkpt>
      <trkpt lat="50.047378" lon="6.810200">
        <time>2008-07-14T12:00:08Z</time>
      </trkpt>
      <trkpt lat="50.047123" lon="6.810754">
        <time>2008-07-14T12:00:08Z</time>
      </trkpt>
      <trkpt lat="50.046752" lon="6.811083">
        <time>2008-07-14T12:00:08Z</time>
      </trkpt>
      <trkpt lat="50.046479" lon="6.811525">
        <time>2008-07-14T12:00:08Z</time>
      </trkpt>
      <trkpt lat="50.046171" lon="6.811827">
        <time>2008-07-14T12:00:08Z</time>
      </trkpt>
      <trkpt lat="50.045898" lon="6.812325">
        <time>2008-07-14T12:00:08Z</time>
      </trkpt>
      <trkpt lat="50.045886" lon="6.812744">
        <time>2008-07-14T12:00:08Z</time>
      </trkpt>
      <trkpt lat="50.045955" lon="6.813220">
        <time>2008-07-14T12:00:08Z</time>
      </trkpt>
      <trkpt lat="50.045952" lon="6.813611">
        <time>2008-07-14T12:00:08Z</time>
      </trkpt>
      <trkpt lat="50.045752" lon="6.813872">
        <time>2008-07-14T12:00:08Z</time>
      </trkpt>
      <trkpt lat="50.045437" lon="6.813937">
        <time>2008-07-14T12:00:08Z</time>
      </trkpt>
      <trkpt lat="50.045131" lon="6.813974">
        <time>2008-07-14T12:00:08Z</time>
      </trkpt>
      <trkpt lat="50.044860" lon="6.814164">
        <time>2008-07-14T12:00:08Z</time>
      </trkpt>
      <trkpt lat="50.044500" lon="6.814284">
        <time>2008-07-14T12:00:08Z</time>
      </trkpt>
      <trkpt lat="50.044274" lon="6.814420">
        <time>2008-07-14T12:00:08Z</time>
      </trkpt>
      <trkpt lat="50.044102" lon="6.814696">
        <time>2008-07-14T12:00:08Z</time>
      </trkpt>
      <trkpt lat="50.043946" lon="6.815042">
        <time>2008-07-14T12:00:08Z</time>
      </trkpt>
      <trkpt lat="50.043946" lon="6.815042">
        <time>2008-07-14T12:00:08Z</time>
      </trkpt>
      <trkpt lat="50.043752" lon="6.814592">
        <time>2008-07-14T12:00:08Z</time>
      </trkpt>
      <trkpt lat="50.043450" lon="6.813931">
        <time>2008-07-14T12:00:08Z</time>
      </trkpt>
      <trkpt lat="50.043450" lon="6.813931">
        <time>2008-07-14T12:00:08Z</time>
      </trkpt>
      <trkpt lat="50.042980" lon="6.814342">
        <time>2008-07-14T12:00:08Z</time>
      </trkpt>
      <trkpt lat="50.042518" lon="6.814865">
        <time>2008-07-14T12:00:08Z</time>
      </trkpt>
      <trkpt lat="50.041842" lon="6.815161">
        <time>2008-07-14T12:00:08Z</time>
      </trkpt>
      <trkpt lat="50.041571" lon="6.815254">
        <time>2008-07-14T12:00:08Z</time>
      </trkpt>
      <trkpt lat="50.041522" lon="6.815867">
        <time>2008-07-14T12:00:08Z</time>
      </trkpt>
      <trkpt lat="50.041168" lon="6.816294">
        <time>2008-07-14T12:00:08Z</time>
      </trkpt>
      <trkpt lat="50.041168" lon="6.816294">
        <time>2008-07-14T12:00:08Z</time>
      </trkpt>
      <trkpt lat="50.041004" lon="6.816640">
        <time>2008-07-14T12:00:08Z</time>
      </trkpt>
      <trkpt lat="50.040460" lon="6.817259">
        <time>2008-07-14T12:00:08Z</time>
      </trkpt>
      <trkpt lat="50.040460" lon="6.817259">
        <time>2008-07-14T12:00:08Z</time>
      </trkpt>
      <trkpt lat="50.040143" lon="6.817603">
        <time>2008-07-14T12:00:08Z</time>
      </trkpt>
      <trkpt lat="50.040143" lon="6.817603">
        <time>2008-07-14T12:00:08Z</time>
      </trkpt>
      <trkpt lat="50.039708" lon="6.818084">
        <time>2008-07-14T12:00:08Z</time>
      </trkpt>
      <trkpt lat="50.038663" lon="6.818415">
        <time>2008-07-14T12:00:08Z</time>
      </trkpt>
      <trkpt lat="50.037758" lon="6.819307">
        <time>2008-07-14T12:00:08Z</time>
      </trkpt>
      <trkpt lat="50.037540" lon="6.819582">
        <time>2008-07-14T12:00:08Z</time>
      </trkpt>
      <trkpt lat="50.037540" lon="6.819582">
        <time>2008-07-14T12:00:08Z</time>
      </trkpt>
      <trkpt lat="50.037396" lon="6.819664">
        <time>2008-07-14T12:00:08Z</time>
      </trkpt>
      <trkpt lat="50.037144" lon="6.819618">
        <ele>238.000000</ele>
        <time>2008-07-14T12:00:08Z</time>
      </trkpt>
      <trkpt lat="50.037144" lon="6.819618">
        <time>2008-07-14T12:00:08Z</time>
      </trkpt>
      <trkpt lat="50.037286" lon="6.818573">
        <time>2008-07-14T12:00:08Z</time>
      </trkpt>
      <trkpt lat="50.037412" lon="6.817389">
        <time>2008-07-14T12:00:08Z</time>
      </trkpt>
      <trkpt lat="50.037435" lon="6.816579">
        <time>2008-07-14T12:00:08Z</time>
      </trkpt>
      <trkpt lat="50.036931" lon="6.815454">
        <time>2008-07-14T12:00:08Z</time>
      </trkpt>
      <trkpt lat="50.036147" lon="6.814366">
        <time>2008-07-14T12:00:08Z</time>
      </trkpt>
      <trkpt lat="50.035597" lon="6.813338">
        <time>2008-07-14T12:00:08Z</time>
      </trkpt>
      <trkpt lat="50.035336" lon="6.812119">
        <time>2008-07-14T12:00:08Z</time>
      </trkpt>
      <trkpt lat="50.035219" lon="6.810903">
        <time>2008-07-14T12:00:08Z</time>
      </trkpt>
      <trkpt lat="50.035219" lon="6.810903">
        <time>2008-07-14T12:00:08Z</time>
      </trkpt>
      <trkpt lat="50.035527" lon="6.810517">
        <time>2008-07-14T12:00:08Z</time>
      </trkpt>
      <trkpt lat="50.036043" lon="6.809926">
        <time>2008-07-14T12:00:08Z</time>
      </trkpt>
      <trkpt lat="50.037107" lon="6.809483">
        <time>2008-07-14T12:00:08Z</time>
      </trkpt>
      <trkpt lat="50.037040" lon="6.808798">
        <time>2008-07-14T12:00:08Z</time>
      </trkpt>
      <trkpt lat="50.036777" lon="6.807886">
        <time>2008-07-14T12:00:08Z</time>
      </trkpt>
      <trkpt lat="50.036493" lon="6.807323">
        <time>2008-07-14T12:00:08Z</time>
      </trkpt>
      <trkpt lat="50.036235" lon="6.806900">
        <time>2008-07-14T12:00:08Z</time>
      </trkpt>
      <trkpt lat="50.036235" lon="6.806900">
        <time>2008-07-14T12:00:08Z</time>
      </trkpt>
      <trkpt lat="50.036454" lon="6.806485">
        <time>2008-07-14T12:00:08Z</time>
      </trkpt>
      <trkpt lat="50.036221" lon="6.805155">
        <time>2008-07-14T12:00:08Z</time>
      </trkpt>
      <trkpt lat="50.036404" lon="6.804669">
        <time>2008-07-14T12:00:08Z</time>
      </trkpt>
      <trkpt lat="50.036737" lon="6.804493">
        <time>2008-07-14T12:00:08Z</time>
      </trkpt>
      <trkpt lat="50.036937" lon="6.804218">
        <time>2008-07-14T12:00:08Z</time>
      </trkpt>
      <trkpt lat="50.036969" lon="6.803492">
        <time>2008-07-14T12:00:08Z</time>
      </trkpt>
      <trkpt lat="50.036824" lon="6.802345">
        <time>2008-07-14T12:00:08Z</time>
      </trkpt>
      <trkpt lat="50.036454" lon="6.801348">
        <ele>283.000000</ele>
        <time>2008-07-14T12:00:08Z</time>
      </trkpt>
      <trkpt lat="50.036454" lon="6.801348">
        <time>2008-07-14T12:00:08Z</time>
      </trkpt>
      <trkpt lat="50.036232" lon="6.800898">
        <time>2008-07-14T12:00:08Z</time>
      </trkpt>
      <trkpt lat="50.036057" lon="6.800239">
        <time>2008-07-14T12:00:08Z</time>
      </trkpt>
      <trkpt lat="50.036091" lon="6.797936">
        <time>2008-07-14T12:00:08Z</time>
      </trkpt>
      <trkpt lat="50.036232" lon="6.796989">
        <time>2008-07-14T12:00:08Z</time>
      </trkpt>
      <trkpt lat="50.036542" lon="6.796408">
        <time>2008-07-14T12:00:08Z</time>
      </trkpt>
      <trkpt lat="50.036542" lon="6.796408">
        <time>2008-07-14T12:00:08Z</time>
      </trkpt>
      <trkpt lat="50.036716" lon="6.795867">
        <time>2008-07-14T12:00:08Z</time>
      </trkpt>
      <trkpt lat="50.036784" lon="6.795142">
        <time>2008-07-14T12:00:08Z</time>
      </trkpt>
      <trkpt lat="50.036869" lon="6.794599">
        <time>2008-07-14T12:00:08Z</time>
      </trkpt>
      <trkpt lat="50.036938" lon="6.793581">
        <time>2008-07-14T12:00:08Z</time>
      </trkpt>
      <trkpt lat="50.036962" lon="6.792814">
        <time>2008-07-14T12:00:08Z</time>
      </trkpt>
      <trkpt lat="50.036962" lon="6.792814">
        <time>2008-07-14T12:00:08Z</time>
      </trkpt>
      <trkpt lat="50.036803" lon="6.792337">
        <time>2008-07-14T12:00:08Z</time>
      </trkpt>
      <trkpt lat="50.036600" lon="6.791831">
        <time>2008-07-14T12:00:08Z</time>
      </trkpt>
      <trkpt lat="50.036414" lon="6.791409">
        <time>2008-07-14T12:00:08Z</time>
      </trkpt>
      <trkpt lat="50.036140" lon="6.790706">
        <time>2008-07-14T12:00:08Z</time>
      </trkpt>
      <trkpt lat="50.035838" lon="6.790143">
        <time>2008-07-14T12:00:08Z</time>
      </trkpt>
      <trkpt lat="50.035752" lon="6.789569">
        <time>2008-07-14T12:00:08Z</time>
      </trkpt>
      <trkpt lat="50.035679" lon="6.788452">
        <time>2008-07-14T12:00:08Z</time>
      </trkpt>
      <trkpt lat="50.035679" lon="6.788452">
        <time>2008-07-14T12:00:08Z</time>
      </trkpt>
      <trkpt lat="50.035646" lon="6.787976">
        <time>2008-07-14T12:00:08Z</time>
      </trkpt>
      <trkpt lat="50.035567" lon="6.787696">
        <time>2008-07-14T12:00:08Z</time>
      </trkpt>
      <trkpt lat="50.035567" lon="6.787696">
        <time>2008-07-14T12:00:08Z</time>
      </trkpt>
      <trkpt lat="50.035543" lon="6.787319">
        <time>2008-07-14T12:00:08Z</time>
      </trkpt>
      <trkpt lat="50.035429" lon="6.786828">
        <time>2008-07-14T12:00:08Z</time>
      </trkpt>
      <trkpt lat="50.035387" lon="6.786395">
        <time>2008-07-14T12:00:08Z</time>
      </trkpt>
      <trkpt lat="50.035291" lon="6.785947">
        <time>2008-07-14T12:00:08Z</time>
      </trkpt>
      <trkpt lat="50.035167" lon="6.785694">
        <time>2008-07-14T12:00:08Z</time>
      </trkpt>
      <trkpt lat="50.035167" lon="6.785694">
        <time>2008-07-14T12:00:08Z</time>
      </trkpt>
      <trkpt lat="50.035034" lon="6.785426">
        <time>2008-07-14T12:00:08Z</time>
      </trkpt>
      <trkpt lat="50.034948" lon="6.784880">
        <time>2008-07-14T12:00:08Z</time>
      </trkpt>
      <trkpt lat="50.034853" lon="6.784237">
        <time>2008-07-14T12:00:08Z</time>
      </trkpt>
      <trkpt lat="50.034742" lon="6.783425">
        <time>2008-07-14T12:00:08Z</time>
      </trkpt>
      <trkpt lat="50.034620" lon="6.782809">
        <time>2008-07-14T12:00:08Z</time>
      </trkpt>
      <trkpt lat="50.034526" lon="6.782180">
        <time>2008-07-14T12:00:08Z</time>
      </trkpt>
      <trkpt lat="50.034502" lon="6.781705">
        <time>2008-07-14T12:00:08Z</time>
      </trkpt>
      <trkpt lat="50.034475" lon="6.781634">
        <time>2008-07-14T12:00:08Z</time>
      </trkpt>
      <trkpt lat="50.034475" lon="6.781634">
        <time>2008-07-14T12:00:08Z</time>
      </trkpt>
      <trkpt lat="50.034245" lon="6.781058">
        <time>2008-07-14T12:00:08Z</time>
      </trkpt>
      <trkpt lat="50.034245" lon="6.781058">
        <time>2008-07-14T12:00:08Z</time>
      </trkpt>
      <trkpt lat="50.034104" lon="6.780707">
        <time>2008-07-14T12:00:08Z</time>
      </trkpt>
      <trkpt lat="50.033963" lon="6.780230">
        <time>2008-07-14T12:00:08Z</time>
      </trkpt>
      <trkpt lat="50.033822" lon="6.779795">
        <time>2008-07-14T12:00:08Z</time>
      </trkpt>
      <trkpt lat="50.033888" lon="6.779336">
        <time>2008-07-14T12:00:08Z</time>
      </trkpt>
      <trkpt lat="50.034053" lon="6.778989">
        <time>2008-07-14T12:00:08Z</time>
      </trkpt>
      <trkpt lat="50.034325" lon="6.778645">
        <time>2008-07-14T12:00:08Z</time>
      </trkpt>
      <trkpt lat="50.034461" lon="6.778410">
        <time>2008-07-14T12:00:08Z</time>
      </trkpt>
      <trkpt lat="50.034461" lon="6.778410">
        <time>2008-07-14T12:00:08Z</time>
      </trkpt>
      <trkpt lat="50.034400" lon="6.778186">
        <time>2008-07-14T12:00:08Z</time>
      </trkpt>
      <trkpt lat="50.034040" lon="6.778138">
        <time>2008-07-14T12:00:08Z</time>
      </trkpt>
      <trkpt lat="50.033644" lon="6.778299">
        <time>2008-07-14T12:00:08Z</time>
      </trkpt>
      <trkpt lat="50.033281" lon="6.778670">
        <time>2008-07-14T12:00:08Z</time>
      </trkpt>
      <trkpt lat="50.033134" lon="6.779170">
        <time>2008-07-14T12:00:08Z</time>
      </trkpt>
      <trkpt lat="50.033103" lon="6.779812">
        <time>2008-07-14T12:00:08Z</time>
      </trkpt>
      <trkpt lat="50.033107" lon="6.780593">
        <time>2008-07-14T12:00:08Z</time>
      </trkpt>
      <trkpt lat="50.033013" lon="6.781108">
        <time>2008-07-14T12:00:08Z</time>
      </trkpt>
      <trkpt lat="50.032891" lon="6.781860">
        <time>2008-07-14T12:00:08Z</time>
      </trkpt>
      <trkpt lat="50.032844" lon="6.782208">
        <time>2008-07-14T12:00:08Z</time>
      </trkpt>
      <trkpt lat="50.032664" lon="6.782303">
        <time>2008-07-14T12:00:08Z</time>
      </trkpt>
      <trkpt lat="50.032420" lon="6.782466">
        <time>2008-07-14T12:00:08Z</time>
      </trkpt>
      <trkpt lat="50.032420" lon="6.782466">
        <time>2008-07-14T12:00:08Z</time>
      </trkpt>
      <trkpt lat="50.032483" lon="6.783793">
        <time>2008-07-14T12:00:08Z</time>
      </trkpt>
      <trkpt lat="50.032483" lon="6.785119">
        <time>2008-07-14T12:00:08Z</time>
      </trkpt>
      <trkpt lat="50.032510" lon="6.786460">
        <time>2008-07-14T12:00:08Z</time>
      </trkpt>
      <trkpt lat="50.032510" lon="6.786460">
        <time>2008-07-14T12:00:08Z</time>
      </trkpt>
      <trkpt lat="50.032456" lon="6.786417">
        <time>2008-07-14T12:00:08Z</time>
      </trkpt>
      <trkpt lat="50.030806" lon="6.784492">
        <time>2008-07-14T12:00:08Z</time>
      </trkpt>
      <trkpt lat="50.030806" lon="6.784492">
        <time>2008-07-14T12:00:08Z</time>
      </trkpt>
      <trkpt lat="50.030503" lon="6.784138">
        <time>2008-07-14T12:00:08Z</time>
      </trkpt>
      <trkpt lat="50.030282" lon="6.783534">
        <time>2008-07-14T12:00:08Z</time>
      </trkpt>
      <trkpt lat="50.030282" lon="6.783534">
        <time>2008-07-14T12:00:08Z</time>
      </trkpt>
      <trkpt lat="50.030003" lon="6.783530">
        <time>2008-07-14T12:00:08Z</time>
      </trkpt>
      <trkpt lat="50.029437" lon="6.783534">
        <ele>329.000000</ele>
        <time>2008-07-14T12:00:08Z</time>
      </trkpt>
      <trkpt lat="50.029437" lon="6.783534">
        <time>2008-07-14T12:00:08Z</time>
      </trkpt>
      <trkpt lat="50.029434" lon="6.782641">
        <time>2008-07-14T12:00:08Z</time>
      </trkpt>
      <trkpt lat="50.029448" lon="6.781930">
        <time>2008-07-14T12:00:08Z</time>
      </trkpt>
      <trkpt lat="50.029396" lon="6.781580">
        <time>2008-07-14T12:00:08Z</time>
      </trkpt>
      <trkpt lat="50.029396" lon="6.781580">
        <time>2008-07-14T12:00:08Z</time>
      </trkpt>
      <trkpt lat="50.029381" lon="6.781119">
        <time>2008-07-14T12:00:08Z</time>
      </trkpt>
      <trkpt lat="50.029278" lon="6.780475">
        <time>2008-07-14T12:00:08Z</time>
      </trkpt>
      <trkpt lat="50.029166" lon="6.779720">
        <time>2008-07-14T12:00:08Z</time>
      </trkpt>
      <trkpt lat="50.029087" lon="6.779370">
        <time>2008-07-14T12:00:08Z</time>
      </trkpt>
      <trkpt lat="50.028964" lon="6.779061">
        <time>2008-07-14T12:00:08Z</time>
      </trkpt>
      <trkpt lat="50.028768" lon="6.778639">
        <time>2008-07-14T12:00:08Z</time>
      </trkpt>
      <trkpt lat="50.028672" lon="6.778330">
        <time>2008-07-14T12:00:08Z</time>
      </trkpt>
      <trkpt lat="50.028620" lon="6.777925">
        <time>2008-07-14T12:00:08Z</time>
      </trkpt>
      <trkpt lat="50.028616" lon="6.777283">
        <time>2008-07-14T12:00:08Z</time>
      </trkpt>
      <trkpt lat="50.028634" lon="6.777325">
        <time>2008-07-14T12:00:08Z</time>
      </trkpt>
      <trkpt lat="50.028634" lon="6.777325">
        <time>2008-07-14T12:00:08Z</time>
      </trkpt>
      <trkpt lat="50.028438" lon="6.774209">
        <time>2008-07-14T12:00:08Z</time>
      </trkpt>
      <trkpt lat="50.028356" lon="6.771822">
        <time>2008-07-14T12:00:08Z</time>
      </trkpt>
      <trkpt lat="50.028356" lon="6.771822">
        <time>2008-07-14T12:00:08Z</time>
      </trkpt>
      <trkpt lat="50.028140" lon="6.770437">
        <time>2008-07-14T12:00:08Z</time>
      </trkpt>
      <trkpt lat="50.028158" lon="6.769111">
        <time>2008-07-14T12:00:08Z</time>
      </trkpt>
      <trkpt lat="50.028710" lon="6.767236">
        <time>2008-07-14T12:00:08Z</time>
      </trkpt>
      <trkpt lat="50.028856" lon="6.766847">
        <time>2008-07-14T12:00:08Z</time>
      </trkpt>
      <trkpt lat="50.028838" lon="6.766833">
        <time>2008-07-14T12:00:08Z</time>
      </trkpt>
      <trkpt lat="50.028947" lon="6.765286">
        <time>2008-07-14T12:00:08Z</time>
      </trkpt>
      <trkpt lat="50.028947" lon="6.765286">
        <time>2008-07-14T12:00:08Z</time>
      </trkpt>
      <trkpt lat="50.028913" lon="6.764992">
        <time>2008-07-14T12:00:08Z</time>
      </trkpt>
      <trkpt lat="50.029264" lon="6.763574">
        <time>2008-07-14T12:00:08Z</time>
      </trkpt>
      <trkpt lat="50.029880" lon="6.762956">
        <time>2008-07-14T12:00:08Z</time>
      </trkpt>
      <trkpt lat="50.029873" lon="6.762648">
        <time>2008-07-14T12:00:08Z</time>
      </trkpt>
      <trkpt lat="50.029873" lon="6.762648">
        <time>2008-07-14T12:00:08Z</time>
      </trkpt>
      <trkpt lat="50.029704" lon="6.762255">
        <time>2008-07-14T12:00:08Z</time>
      </trkpt>
      <trkpt lat="50.029574" lon="6.761583">
        <time>2008-07-14T12:00:08Z</time>
      </trkpt>
      <trkpt lat="50.029562" lon="6.760662">
        <time>2008-07-14T12:00:08Z</time>
      </trkpt>
      <trkpt lat="50.029568" lon="6.759713">
        <time>2008-07-14T12:00:08Z</time>
      </trkpt>
      <trkpt lat="50.029733" lon="6.759185">
        <time>2008-07-14T12:00:08Z</time>
      </trkpt>
      <trkpt lat="50.029733" lon="6.759185">
        <time>2008-07-14T12:00:08Z</time>
      </trkpt>
      <trkpt lat="50.029827" lon="6.758684">
        <time>2008-07-14T12:00:08Z</time>
      </trkpt>
      <trkpt lat="50.029424" lon="6.758455">
        <time>2008-07-14T12:00:08Z</time>
      </trkpt>
      <trkpt lat="50.029644" lon="6.757746">
        <time>2008-07-14T12:00:08Z</time>
      </trkpt>
      <trkpt lat="50.029644" lon="6.757746">
        <time>2008-07-14T12:00:08Z</time>
      </trkpt>
      <trkpt lat="50.029693" lon="6.757077">
        <time>2008-07-14T12:00:08Z</time>
      </trkpt>
      <trkpt lat="50.029571" lon="6.756587">
        <ele>312.000000</ele>
        <time>2008-07-14T12:00:08Z</time>
      </trkpt>
      <trkpt lat="50.029571" lon="6.756587">
        <time>2008-07-14T12:00:08Z</time>
      </trkpt>
      <trkpt lat="50.029428" lon="6.756473">
        <time>2008-07-14T12:00:08Z</time>
      </trkpt>
      <trkpt lat="50.029383" lon="6.756444">
        <time>2008-07-14T12:00:08Z</time>
      </trkpt>
      <trkpt lat="50.029383" lon="6.756444">
        <time>2008-07-14T12:00:08Z</time>
      </trkpt>
      <trkpt lat="50.029194" lon="6.756441">
        <time>2008-07-14T12:00:08Z</time>
      </trkpt>
      <trkpt lat="50.029095" lon="6.756481">
        <time>2008-07-14T12:00:08Z</time>
      </trkpt>
      <trkpt lat="50.029095" lon="6.756481">
        <time>2008-07-14T12:00:08Z</time>
      </trkpt>
      <trkpt lat="50.029052" lon="6.756132">
        <time>2008-07-14T12:00:08Z</time>
      </trkpt>
      <trkpt lat="50.029027" lon="6.755894">
        <time>2008-07-14T12:00:08Z</time>
      </trkpt>
      <trkpt lat="50.028902" lon="6.755697">
        <time>2008-07-14T12:00:08Z</time>
      </trkpt>
    </trkseg>
  </trk>

</gpx>
